EW5956 Weather Reports


time (UTC)temp
C
wind
direction
speed
KPH
gust
KPH
rain 1hr
cm
rain 24hr
cm
rain mn
cm
humidity
%
barometer
mb
20260505060114 18 229 0.0 1.6 0.00 0.00 0.00 58 1014.9
20260505055605 18 245 3.2 3.2 0.00 0.00 0.00 59 1014.9
20260505055105 17 268 3.2 4.8 0.00 0.00 0.00 59 1014.9
20260505054605 17 278 3.2 4.8 0.00 0.00 0.00 62 1015.1
20260505053605 16 228 3.2 4.8 0.00 0.00 0.00 62 1015.0
20260505053105 16 266 1.6 4.8 0.00 0.00 0.00 61 1014.6
20260505052605 16 272 4.8 9.7 0.00 0.00 0.00 61 1014.9
20260505052105 17 257 1.6 3.2 0.00 0.00 0.00 59 1014.7
20260505051105 17 231 1.6 4.8 0.00 0.00 0.00 60 1014.9
20260505050114 17 172 3.2 12.9 0.00 0.00 0.00 60 1014.6
20260505041106 11 250 1.6 1.6 0.00 0.00 0.00 88 1014.9
20260505040606 11 247 1.6 3.2 0.00 0.00 0.00 87 1015.1
20260505035605 11 234 0.0 1.6 0.00 0.00 0.00 87 1015.2
20260505035105 12 247 0.0 3.2 0.00 0.00 0.00 87 1015.2
20260505034605 12 234 0.0 1.6 0.00 0.00 0.00 86 1015.2
20260505034106 12 218 1.6 3.2 0.00 0.00 0.00 88 1015.2
20260505033605 11 223 1.6 1.6 0.00 0.00 0.00 89 1015.2
20260505033105 11 242 0.0 1.6 0.00 0.00 0.00 88 1015.2
20260505032605 12 232 0.0 3.2 0.00 0.00 0.00 88 1015.2
20260505032105 12 252 3.2 3.2 0.00 0.00 0.00 88 1015.1
20260505031105 12 218 0.0 0.0 0.00 0.00 0.00 87 1015.2
20260505030605 12 218 0.0 0.0 0.00 0.00 0.00 87 1015.2
20260505030113 12 218 0.0 0.0 0.00 0.00 0.00 87 1015.2
20260505025605 12 218 0.0 3.2 0.00 0.00 0.00 88 1015.2
20260505025105 12 220 0.0 0.0 0.00 0.00 0.00 88 1015.5
20260505024605 12 220 0.0 0.0 0.00 0.00 0.00 88 1015.6
20260505024105 12 220 0.0 0.0 0.00 0.00 0.00 88 1015.3
20260505023605 12 223 0.0 1.6 0.00 0.00 0.00 89 1015.6
20260505023105 12 176 1.6 1.6 0.00 0.00 0.00 90 1015.6
20260505022605 12 227 0.0 0.0 0.00 0.00 0.00 90 1015.5
20260505021106 12 227 0.0 0.0 0.00 0.00 0.00 90 1015.7
20260505020604 12 227 0.0 0.0 0.00 0.00 0.00 89 1015.8
20260505020114 12 228 0.0 0.0 0.00 0.00 0.00 89 1015.6
20260505015105 12 227 0.0 0.0 0.00 0.00 0.00 89 1015.6
20260505014605 12 227 0.0 0.0 0.00 0.00 0.00 89 1015.6
20260505013106 12 246 0.0 0.0 0.00 0.00 0.00 88 1015.8
20260505012605 13 246 1.6 1.6 0.00 0.00 0.00 88 1015.6
20260505012104 13 243 0.0 3.2 0.00 0.00 0.00 87 1015.8
20260505011604 13 249 1.6 3.2 0.00 0.00 0.00 86 1015.9
20260505011105 13 243 0.0 1.6 0.00 0.00 0.00 86 1015.7
20260505010606 13 223 0.0 1.6 0.00 0.00 0.00 86 1015.9
20260505010113 13 222 0.0 3.2 0.00 0.00 0.00 87 1015.9
20260505005105 12 215 0.0 1.6 0.00 0.00 0.00 87 1015.9
20260505004605 12 215 0.0 0.0 0.00 0.00 0.00 87 1015.9
20260505004105 12 215 0.0 0.0 0.00 0.00 0.00 87 1015.9
20260505003605 12 215 0.0 3.2 0.00 0.00 0.00 88 1016.0
20260505002605 12 219 1.6 1.6 0.00 0.00 0.00 88 1016.3
20260505001605 12 227 0.0 0.0 0.00 0.00 0.00 88 1016.3
20260505000605 12 231 0.0 0.0 0.00 0.00 0.00 88 1016.1
20260504235605 12 240 0.0 3.2 0.00 0.00 0.00 88 1016.1
20260504234606 13 235 0.0 0.0 0.00 0.00 0.00 87 1016.3
20260504234105 13 240 0.0 0.0 0.00 0.00 0.00 87 1016.1
20260504233605 13 241 0.0 1.6 0.00 0.00 0.00 87 1016.5
20260504233104 13 209 1.6 1.6 0.00 0.00 0.00 87 1016.4
20260504232605 13 220 0.0 1.6 0.00 0.00 0.00 88 1016.1
20260504232104 13 216 0.0 1.6 0.00 0.00 0.00 88 1016.6
20260504231605 14 218 0.0 1.6 0.00 0.00 0.00 88 1016.3
20260504231105 14 218 0.0 1.6 0.00 0.00 0.00 88 1016.4
20260504230605 14 218 0.0 1.6 0.00 0.00 0.00 87 1016.3
20260504230113 14 219 0.0 0.0 0.00 0.00 0.00 87 1016.3
20260504225606 15 218 0.0 0.0 0.00 0.00 0.00 87 1016.3
20260504225105 15 218 0.0 1.6 0.00 0.00 0.00 88 1016.4
20260504224105 13 213 0.0 1.6 0.00 0.00 0.00 89 1016.5
20260504223105 14 214 0.0 0.0 0.00 0.00 0.00 88 1016.4
20260504222606 14 213 0.0 1.6 0.00 0.00 0.00 89 1016.3
20260504221605 14 218 0.0 0.0 0.00 0.00 0.00 88 1016.6
20260504221105 14 219 0.0 0.0 0.00 0.00 0.00 88 1016.6
20260504215606 15 221 0.0 1.6 0.00 0.00 0.00 89 1016.6
20260504215105 14 229 0.0 0.0 0.00 0.00 0.00 89 1016.6
20260504214605 14 231 0.0 0.0 0.00 0.00 0.00 88 1016.6
20260504214105 14 223 0.0 0.0 0.00 0.00 0.00 88 1016.6
20260504213105 15 222 0.0 0.0 0.00 0.00 0.00 87 1016.6
20260504212605 15 223 0.0 0.0 0.00 0.00 0.00 87 1016.3
20260504212105 15 221 0.0 0.0 0.00 0.00 0.00 87 1016.5
20260504211606 15 227 0.0 0.0 0.00 0.00 0.00 87 1016.5
20260504211105 15 220 0.0 3.2 0.00 0.00 0.00 88 1016.6
20260504210605 15 158 3.2 4.8 0.00 0.00 0.00 88 1016.4
20260504210114 15 200 0.0 1.6 0.00 0.00 0.00 89 1016.3
20260504205606 15 245 0.0 0.0 0.00 0.00 0.00 90 1016.6
20260504205105 15 245 0.0 0.0 0.00 0.00 0.00 91 1016.6
20260504204106 15 245 0.0 0.0 0.00 0.00 0.00 91 1016.6
20260504203605 15 245 0.0 0.0 0.00 0.00 0.00 91 1016.4
20260504203105 15 245 0.0 0.0 0.00 0.00 0.00 91 1016.5
20260504202605 15 245 0.0 0.0 0.00 0.00 0.00 92 1016.6
20260504202105 15 245 0.0 0.0 0.00 0.00 0.00 92 1016.6
20260504201605 16 245 0.0 0.0 0.00 0.00 0.00 92 1016.6
20260504201105 16 245 0.0 0.0 0.00 0.00 0.00 92 1016.9
20260504200114 16 245 0.0 1.6 0.00 0.00 0.00 92 1016.9
20260504195605 16 245 0.0 1.6 0.00 0.00 0.00 92 1016.9
20260504195105 16 245 0.0 1.6 0.00 0.00 0.00 91 1016.9
20260504194108 16 247 1.6 3.2 0.00 0.00 0.00 90 1016.9
20260504193605 16 261 3.2 3.2 0.00 0.00 0.00 89 1016.9
20260504193105 16 247 1.6 3.2 0.00 0.00 0.00 88 1016.7
20260504192605 16 219 0.0 0.0 0.00 0.00 0.00 88 1016.6
20260504191605 16 218 0.0 0.0 0.00 0.00 0.00 88 1016.9
20260504191106 16 216 1.6 1.6 0.00 0.00 0.00 88 1016.7
20260504190114 16 229 0.0 1.6 0.00 0.00 0.00 88 1016.9
20260504185606 16 234 0.0 1.6 0.00 0.00 0.00 87 1016.9
20260504185106 16 169 1.6 3.2 0.00 0.00 0.00 87 1016.9
20260504184605 17 219 0.0 0.0 0.00 0.00 0.00 87 1016.9
20260504184105 17 221 0.0 1.6 0.00 0.00 0.00 87 1016.8
20260504183606 17 222 1.6 1.6 0.00 0.00 0.00 86 1016.8
20260504183105 17 223 1.6 1.6 0.00 0.00 0.00 85 1016.9
20260504182605 17 230 1.6 1.6 0.00 0.00 0.00 85 1016.7
20260504182105 17 231 0.0 3.2 0.00 0.00 0.00 84 1016.8
20260504181605 17 184 1.6 3.2 0.00 0.00 0.00 83 1016.9
20260504181105 17 209 1.6 4.8 0.00 0.00 0.00 82 1016.8
20260504180114 17 216 1.6 4.8 0.00 0.00 0.00 79 1016.9
20260504175605 17 153 3.2 4.8 0.00 0.00 0.00 78 1016.6
20260504175106 18 221 1.6 3.2 0.00 0.00 0.00 77 1016.6
20260504174605 18 214 1.6 1.6 0.00 0.00 0.00 76 1016.6
20260504174106 18 228 0.0 1.6 0.00 0.00 0.00 76 1016.6
20260504173605 18 227 1.6 1.6 0.00 0.00 0.00 76 1016.6
20260504173105 18 229 0.0 1.6 0.00 0.00 0.00 74 1016.6
20260504172605 18 230 1.6 1.6 0.00 0.00 0.00 73 1016.6
20260504171606 19 224 1.6 3.2 0.00 0.00 0.00 70 1016.7
20260504171105 19 226 1.6 3.2 0.00 0.00 0.00 70 1016.8
20260504170606 19 212 1.6 4.8 0.00 0.00 0.00 69 1016.6
20260504170114 19 181 3.2 4.8 0.00 0.00 0.00 62 1016.6
20260504160113 21 168 3.2 8.0 0.00 0.00 0.00 63 1017.0
20260504151107 21 258 3.2 4.8 0.00 0.00 0.00 71 1017.4
20260504150605 21 202 3.2 8.0 0.00 0.00 0.00 71 1017.8
20260504150114 20 200 3.2 9.7 0.00 0.00 0.00 71 1017.6
20260504141105 21 185 3.2 16.1 0.00 0.00 0.00 65 1018.1
20260504140605 21 260 4.8 14.5 0.00 0.00 0.00 66 1018.0
20260504140114 21 246 4.8 12.9 0.00 0.00 0.00 67 1018.1
20260504130605 21 50 8.0 19.3 0.00 0.00 0.00 61 1018.4
20260504130114 20 151 11.3 25.7 0.00 0.00 0.00 62 1018.6
20260504110605 20 150 9.7 14.5 0.00 0.00 0.00 65 1019.0
20260504110115 20 228 9.7 19.3 0.00 0.00 0.00 65 1019.0
20260504100605 21 12 4.8 9.7 0.00 0.00 0.00 65 1019.1
20260504090114 21 188 9.7 19.3 0.00 0.00 0.00 59 1019.0
20260504081606 21 172 9.7 16.1 0.00 0.00 0.00 53 1019.2
20260504081106 22 120 4.8 11.3 0.00 0.00 0.00 53 1019.0
20260504080114 21 217 1.6 3.2 0.00 0.00 0.00 57 1019.0